Weather reports worldwide

Advertisment
Palermo/Punta Raisi, Italy (16405): temperature & dewpoint: 11.08.2018 22:00:00 - 17.08.2018 22:00:00 (CEST)Palermo/Punta Raisi, Italy (16405): wind speed: 11.08.2018 22:00:00 - 17.08.2018 22:00:00 (CEST)Palermo/Punta Raisi, Italy (16405): wind direction: 11.08.2018 22:00:00 - 17.08.2018 22:00:00 (CEST)Palermo/Punta Raisi, Italy (16405): reduced air pressure: 11.08.2018 22:00:00 - 17.08.2018 22:00:00 (CEST)Palermo/Punta Raisi, Italy (16405): visibility: 11.08.2018 22:00:00 - 17.08.2018 22:00:00 (CEST)Palermo/Punta Raisi, Italy (16405): precipitation: 11.08.2018 22:00:00 - 17.08.2018 22:00:00 (CEST)
Date & Time tt [°C] td [°C] ff [km/h] ff [kn] dd ppp [hPa] vv [km] rr [mm]
17.08.2018 22:00:00 - - - - - - - -
17.08.2018 21:00:00 27,0 20,0 13 7 ENE - 10 -
17.08.2018 20:00:00 26,7 20,7 13 7 NE 1014,5 10 -
17.08.2018 19:00:00 - - - - - - - -
17.08.2018 18:00:00 28,0 21,0 15 8 NNE - 10 -
17.08.2018 17:00:00 27,7 20,5 15 8 NNE 1013,9 10 0,0
17.08.2018 16:00:00 29,0 21,0 11 6 N - 10 -
17.08.2018 15:00:00 28,0 21,0 11 6 NNW - 10 -
17.08.2018 14:00:00 27,8 20,8 13 7 NW 1015,0 10 -
17.08.2018 13:00:00 28,0 21,0 9 5 W - 10 -
17.08.2018 12:00:00 28,0 21,0 8 4 W - 10 -
17.08.2018 11:00:00 26,1 19,7 15 8 W 1015,3 10 0,0
17.08.2018 10:00:00 26,0 20,0 9 5 W - 10 -
17.08.2018 09:00:00 25,0 20,0 8 4 E - 10 -
17.08.2018 08:00:00 24,6 19,3 13 7 SSE 1014,3 10 -
17.08.2018 07:00:00 24,0 19,0 11 6 SSE - 10 -
17.08.2018 06:00:00 23,0 19,0 9 5 S - 10 -
17.08.2018 05:00:00 23,2 18,3 9 5 S 1013,3 10 0,0
17.08.2018 04:00:00 23,0 19,0 9 5 S - 10 -
17.08.2018 03:00:00 24,0 19,0 8 4 SSE - 10 -
17.08.2018 02:00:00 24,2 19,0 8 4 SSE 1013,6 10 -
17.08.2018 01:00:00 25,0 20,0 4 2 E - 10 -
17.08.2018 00:00:00 26,0 20,0 8 4 ENE - 10 -
16.08.2018 23:00:00 25,5 19,7 11 6 NE 1013,6 10 0,0
16.08.2018 22:00:00 26,0 21,0 13 7 NE - 10 -
16.08.2018 21:00:00 26,0 20,0 13 7 NNE - 10 -
16.08.2018 20:00:00 26,4 19,3 9 5 N 1012,8 10 -
16.08.2018 19:00:00 27,0 19,0 11 6 N - 10 -
16.08.2018 18:00:00 27,0 20,0 13 7 NNW - 10 -
16.08.2018 17:00:00 27,6 20,0 13 7 N 1013,2 10 0,0
16.08.2018 16:00:00 28,0 20,0 9 5 N - 10 -
16.08.2018 15:00:00 28,0 20,0 13 7 N - 10 -
16.08.2018 14:00:00 27,8 19,2 8 4 NNW 1013,6 10 -
16.08.2018 13:00:00 26,0 21,0 24 13 NW - 10 -
16.08.2018 12:00:00 27,0 20,0 8 4 NW - 10 -
16.08.2018 11:00:00 26,2 20,1 8 4 W 1013,8 10 0,0
16.08.2018 10:00:00 25,0 20,0 8 4 WNW - 10 -
16.08.2018 09:00:00 25,0 19,0 4 2 - - 10 -
16.08.2018 08:00:00 24,7 18,7 4 2 SSE 1012,9 10 -
16.08.2018 07:00:00 23,0 18,0 8 4 SSE - 10 -
16.08.2018 06:00:00 23,0 19,0 5 3 SE - 10 -
16.08.2018 05:00:00 22,2 18,8 11 6 S 1012,0 10 0,0
16.08.2018 04:00:00 23,0 19,0 9 5 S - 10 -
16.08.2018 03:00:00 22,0 19,0 9 5 S - 10 -
16.08.2018 02:00:00 22,2 19,5 9 5 S 1012,4 10 -
16.08.2018 01:00:00 23,0 19,0 11 6 SSW - 10 -
16.08.2018 00:00:00 23,0 18,0 13 7 N - 10 -
15.08.2018 23:00:00 24,5 17,6 8 4 ESE 1012,5 10 0,0
15.08.2018 22:00:00 26,0 19,0 8 4 W - 10 -
15.08.2018 21:00:00 26,0 20,0 9 5 W - 10 -
15.08.2018 20:00:00 26,3 19,4 13 7 WNW 1012,0 10 -
15.08.2018 19:00:00 26,0 20,0 15 8 W - 10 -
15.08.2018 18:00:00 26,0 21,0 24 13 NW - 10 -
15.08.2018 17:00:00 26,6 19,6 26 14 W 1012,1 10 0,0
15.08.2018 16:00:00 27,0 20,0 26 14 W - 10 -
15.08.2018 15:00:00 27,0 20,0 31 17 W - 10 -
15.08.2018 14:00:00 26,9 20,6 31 17 WNW 1012,6 10 -
15.08.2018 13:00:00 27,0 21,0 34 18 W - 10 -
15.08.2018 12:00:00 27,0 20,0 13 7 WSW - 10 -
15.08.2018 11:00:00 27,7 19,8 8 4 WNW 1012,6 10 0,0
15.08.2018 10:00:00 27,0 20,0 8 4 W - 10 -
15.08.2018 09:00:00 26,0 19,0 11 6 SSW - 10 -
15.08.2018 08:00:00 24,9 18,9 9 5 NW 1012,5 10 -
15.08.2018 07:00:00 24,0 18,0 9 5 SSW - 10 -
15.08.2018 06:00:00 25,0 18,0 16 9 SSW - 10 -
15.08.2018 05:00:00 24,1 18,0 16 9 SSW 1012,3 10 0,0
15.08.2018 04:00:00 25,0 21,0 16 9 W - 10 -
15.08.2018 03:00:00 27,0 21,0 9 5 SSW - 10 -
15.08.2018 02:00:00 26,2 21,6 13 7 SSW 1011,7 10 -
15.08.2018 01:00:00 27,0 23,0 22 12 WSW - 10 -
15.08.2018 00:00:00 26,0 23,0 8 4 S - 10 -
14.08.2018 23:00:00 27,3 23,4 11 6 W 1012,9 10 0,0
14.08.2018 22:00:00 27,0 23,0 8 4 NNW - 10 -
14.08.2018 21:00:00 27,0 23,0 9 5 NW - 10 -
14.08.2018 20:00:00 27,9 23,1 4 2 - 1012,9 10 -
14.08.2018 19:00:00 28,0 23,0 8 4 WNW - 10 -
14.08.2018 18:00:00 29,0 22,0 11 6 WNW - 10 -
14.08.2018 17:00:00 29,4 22,5 9 5 NW 1013,2 10 0,0
14.08.2018 16:00:00 29,0 22,0 11 6 NW - 10 -
14.08.2018 15:00:00 30,0 22,0 15 8 NNW - 10 -
14.08.2018 14:00:00 29,7 20,6 11 6 NW 1013,0 10 -
14.08.2018 13:00:00 29,0 23,0 9 5 WNW - 10 -
14.08.2018 12:00:00 28,0 23,0 8 4 W - 10 -
14.08.2018 11:00:00 27,0 21,9 11 6 WSW 1014,6 10 0,0
14.08.2018 10:00:00 27,0 20,0 8 4 W - 10 -
14.08.2018 09:00:00 26,0 20,0 11 6 WSW - 10 -
14.08.2018 08:00:00 25,7 20,4 11 6 SW 1013,7 10 -
14.08.2018 07:00:00 24,0 21,0 8 4 SSW - 10 -
14.08.2018 06:00:00 25,0 22,0 5 3 SSE - 10 -
14.08.2018 05:00:00 24,9 21,9 8 4 S 1013,2 10 0,0
14.08.2018 04:00:00 25,0 22,0 9 5 S - 10 -
14.08.2018 03:00:00 26,0 22,0 8 4 WSW - 10 -
14.08.2018 02:00:00 26,0 22,0 9 5 SW 1013,2 10 -
14.08.2018 01:00:00 26,0 22,0 9 5 SW - 10 -
14.08.2018 00:00:00 27,0 22,0 9 5 SW - 10 -
13.08.2018 23:00:00 27,0 22,7 11 6 E 1013,3 10 0,0
13.08.2018 22:00:00 27,0 22,0 13 7 ENE - 10 -
13.08.2018 21:00:00 28,0 23,0 16 9 NE - 10 -
13.08.2018 20:00:00 27,6 22,2 16 9 NNE 1013,6 10 -
13.08.2018 19:00:00 28,0 23,0 22 12 NE - 10 -
13.08.2018 18:00:00 28,0 22,0 24 13 NE - 10 -
13.08.2018 17:00:00 28,9 22,3 22 12 NE 1013,6 10 0,0
13.08.2018 16:00:00 29,0 23,0 13 7 NNE - 10 -
13.08.2018 15:00:00 28,0 23,0 13 7 NNE - 10 -
13.08.2018 14:00:00 28,1 22,8 13 7 NNE 1014,8 10 -
13.08.2018 13:00:00 28,0 23,0 11 6 NNE - 10 -
13.08.2018 12:00:00 28,0 23,0 4 2 NNW - 10 -
13.08.2018 11:00:00 27,2 21,9 11 6 WSW 1015,7 10 0,0
13.08.2018 10:00:00 27,0 21,0 11 6 SW - 10 -
13.08.2018 09:00:00 27,0 18,0 11 6 SW - 10 -
13.08.2018 08:00:00 25,4 17,7 8 4 SW 1014,8 10 -
13.08.2018 07:00:00 23,0 17,0 8 4 SSW - 10 -
13.08.2018 06:00:00 - - - - - - - -
13.08.2018 05:00:00 23,8 17,7 4 2 S 1014,4 10 0,0
13.08.2018 04:00:00 25,0 20,0 9 5 SSW - 10 -
13.08.2018 03:00:00 26,0 21,0 9 5 E - 10 -
13.08.2018 02:00:00 25,3 20,1 8 4 ESE 1015,1 10 -
13.08.2018 01:00:00 26,0 22,0 8 4 - - 10 -
13.08.2018 00:00:00 26,0 22,0 2 1 - - 10 -
12.08.2018 23:00:00 26,8 23,0 2 1 - 1016,1 10 0,0
12.08.2018 22:00:00 28,0 23,0 9 5 WNW - 10 -
12.08.2018 21:00:00 28,0 22,0 8 4 NE - 10 -
12.08.2018 20:00:00 29,1 21,8 24 13 ENE 1015,3 10 -
12.08.2018 19:00:00 29,0 22,0 31 17 ENE - 10 -
12.08.2018 18:00:00 29,0 22,0 34 18 NE - 10 -
12.08.2018 17:00:00 29,2 22,8 34 18 NE 1015,5 10 0,0
12.08.2018 16:00:00 29,0 23,0 29 16 NE - 10 -
12.08.2018 15:00:00 29,0 23,0 31 17 NE - 10 -
12.08.2018 14:00:00 28,8 23,2 28 15 NE 1017,3 10 -
12.08.2018 13:00:00 29,0 23,0 26 14 NE - 10 -
12.08.2018 12:00:00 29,0 22,0 22 12 NE - 10 -
12.08.2018 11:00:00 28,7 22,4 11 6 NNE 1017,7 10 0,0
12.08.2018 10:00:00 27,0 22,0 11 6 WSW - 10 -
12.08.2018 09:00:00 27,0 21,0 13 7 ENE - 10 -
12.08.2018 08:00:00 25,9 22,4 2 1 - 1017,4 10 -
12.08.2018 07:00:00 24,0 20,0 5 3 SSE - 10 -
12.08.2018 06:00:00 25,0 21,0 4 2 - - 10 -
12.08.2018 05:00:00 24,7 21,8 5 3 SSW 1017,0 10 0,0
12.08.2018 04:00:00 26,0 21,0 2 1 - - 10 -
12.08.2018 03:00:00 27,0 21,0 9 5 ENE - 10 -
12.08.2018 02:00:00 26,8 22,4 13 7 ENE 1017,3 10 -
12.08.2018 01:00:00 27,0 23,0 11 6 ENE - 10 -
12.08.2018 00:00:00 27,0 23,0 15 8 NE - 10 -
11.08.2018 23:00:00 27,2 23,3 15 8 NE 1018,0 10 0,0
11.08.2018 22:00:00 27,0 23,0 16 9 NE - 10 -

tt = temperature
td = dewpoint
ff = wind speed
dd = wind direction
ppp = reduced air pressure
vv = visibility
rr = precipitation

Next stations